Location: Karlsruhe
(49.0131°N, 8.3874°E)
Time: 20:13:00
(UTC+01:00)

ISS - Pass Details

Date: 06 January 2018
Orbit: 401 x 407 km, 51.6° (Epoch: 17 January)

Event Time Altitude Azimuth Distance (km) Brightness Sun altitude
Exits shadow 05:15:13 14° 69° (ENE) 1,243 -0.7 -29.2°
Drops below altitude 10° 05:15:47 10° 70° (ENE) 1,468 -0.2 -29.2°
Sets 05:17:52 0° 72° (ENE) 2,331 1.1 -28.8°
